Time,TemperatureF,DewpointF,PressureIn,WindDirection,WindDirectionDegrees,WindSpeedMPH,WindSpeedGustMPH,Humidity,HourlyPrecipIn,Conditions,Clouds,dailyrainin,SoftwareType,DateUTC
2013-08-23 00:01:00,74.7,74.1,30.06,ESE,112,3.8,3.8,98,0.00,,---,0.21,VWS V14.01,2013-08-23 05:01:00,
2013-08-23 00:06:00,74.5,73.9,30.06,SE,135,4.0,4.0,98,0.04,,---,0.04,VWS V14.01,2013-08-23 05:06:00,
2013-08-23 00:11:00,74.5,73.9,30.06,SSE,158,0.9,2.7,98,0.04,,---,0.04,VWS V14.01,2013-08-23 05:11:00,
2013-08-23 00:16:00,74.5,73.9,30.06,SSE,158,1.1,3.4,98,0.04,,---,0.04,VWS V14.01,2013-08-23 05:16:00,
2013-08-23 00:21:00,74.7,74.1,30.03,East,90,0.0,2.0,98,0.04,,---,0.04,VWS V14.01,2013-08-23 05:21:00,
2013-08-23 00:26:00,74.8,74.2,30.03,SE,135,0.0,2.7,98,0.08,,---,0.08,VWS V14.01,2013-08-23 05:26:00,
2013-08-23 00:31:00,75.0,74.4,30.03,NE,45,4.7,4.7,98,0.08,,---,0.08,VWS V14.01,2013-08-23 05:31:00,
2013-08-23 00:36:00,75.0,74.4,30.03,East,90,2.7,3.4,98,0.08,,---,0.08,VWS V14.01,2013-08-23 05:36:00,
2013-08-23 00:41:00,75.0,74.4,30.03,ENE,68,3.4,4.3,98,0.08,,---,0.08,VWS V14.01,2013-08-23 05:41:00,
2013-08-23 00:46:00,75.4,74.8,30.03,NE,45,1.3,4.0,98,0.08,,---,0.08,VWS V14.01,2013-08-23 05:46:00,
2013-08-23 00:51:00,77.0,76.4,30.03,NE,45,8.7,8.7,98,0.08,,---,0.08,VWS V14.01,2013-08-23 05:51:00,
2013-08-23 00:56:00,77.9,77.3,30.03,NNE,22,5.4,8.5,98,0.08,,---,0.08,VWS V14.01,2013-08-23 05:56:00,
2013-08-23 01:01:00,78.1,77.5,30.03,NNE,22,7.4,10.5,98,0.08,,---,0.08,VWS V14.01,2013-08-23 06:01:00,
2013-08-23 01:06:00,77.9,77.3,30.03,NE,45,8.5,8.5,98,0.04,,---,0.08,VWS V14.01,2013-08-23 06:06:00,
2013-08-23 01:11:00,77.9,77.3,30.03,NNE,22,5.4,6.5,98,0.04,,---,0.08,VWS V14.01,2013-08-23 06:11:00,
2013-08-23 01:16:00,78.3,77.7,30.03,NNE,22,8.7,8.7,98,0.04,,---,0.08,VWS V14.01,2013-08-23 06:16:00,
2013-08-23 01:21:00,78.3,77.7,30.03,NNE,22,7.8,7.8,98,0.04,,---,0.08,VWS V14.01,2013-08-23 06:21:00,
2013-08-23 01:26:00,78.4,77.8,30.03,North,0,7.6,7.6,98,0.00,,---,0.08,VWS V14.01,2013-08-23 06:26:00,
2013-08-23 01:31:00,78.4,77.8,30.03,NE,45,4.9,6.3,98,0.00,,---,0.08,VWS V14.01,2013-08-23 06:31:00,
2013-08-23 01:36:00,78.4,77.8,30.03,NNE,22,5.8,6.9,98,0.00,,---,0.08,VWS V14.01,2013-08-23 06:36:00,
2013-08-23 01:41:00,78.6,78.0,30.03,NNE,22,4.3,5.8,98,0.00,,---,0.08,VWS V14.01,2013-08-23 06:41:00,
2013-08-23 01:46:00,78.8,77.9,30.03,SE,135,2.9,4.3,97,0.00,,---,0.08,VWS V14.01,2013-08-23 06:46:00,
2013-08-23 01:51:00,78.4,77.8,30.00,East,90,3.1,3.1,98,0.00,,---,0.08,VWS V14.01,2013-08-23 06:51:00,
2013-08-23 01:56:00,78.3,77.7,30.00,East,90,4.9,4.9,98,0.00,,---,0.08,VWS V14.01,2013-08-23 06:56:00,
2013-08-23 02:01:00,78.4,77.8,30.00,NE,45,2.0,2.0,98,0.00,,---,0.08,VWS V14.01,2013-08-23 07:01:00,
2013-08-23 02:06:00,78.6,78.0,30.00,North,0,1.3,2.9,98,0.00,,---,0.08,VWS V14.01,2013-08-23 07:06:00,
2013-08-23 02:11:00,78.6,78.0,30.00,North,0,1.6,1.6,98,0.00,,---,0.08,VWS V14.01,2013-08-23 07:11:00,
2013-08-23 02:16:00,79.0,78.1,30.00,ESE,112,2.5,2.7,97,0.00,,---,0.08,VWS V14.01,2013-08-23 07:16:00,
2013-08-23 02:21:00,78.8,77.9,29.97,SE,135,1.3,1.6,97,0.00,,---,0.08,VWS V14.01,2013-08-23 07:21:00,
2013-08-23 02:26:00,78.6,78.0,29.97,East,90,1.3,3.6,98,0.00,,---,0.08,VWS V14.01,2013-08-23 07:26:00,
2013-08-23 02:31:00,78.8,77.9,29.97,ESE,112,2.9,4.3,97,0.00,,---,0.08,VWS V14.01,2013-08-23 07:31:00,
2013-08-23 02:36:00,78.8,77.9,30.00,NE,45,2.5,5.8,97,0.00,,---,0.08,VWS V14.01,2013-08-23 07:36:00,
2013-08-23 02:41:00,78.8,77.9,30.00,NNE,22,3.4,3.4,97,0.00,,---,0.08,VWS V14.01,2013-08-23 07:41:00,
2013-08-23 02:46:00,78.6,78.0,30.00,SE,135,4.9,4.9,98,0.00,,---,0.08,VWS V14.01,2013-08-23 07:46:00,
2013-08-23 02:51:00,78.3,77.7,30.00,SE,135,3.1,3.4,98,0.00,,---,0.08,VWS V14.01,2013-08-23 07:51:00,
2013-08-23 02:56:00,78.3,77.7,30.00,SE,135,3.6,3.6,98,0.00,,---,0.08,VWS V14.01,2013-08-23 07:56:00,
2013-08-23 03:01:00,77.9,77.3,30.00,East,90,10.5,10.5,98,0.00,,---,0.08,VWS V14.01,2013-08-23 08:01:00,
2013-08-23 03:06:00,76.8,76.2,30.00,SE,135,4.9,8.1,98,0.00,,---,0.08,VWS V14.01,2013-08-23 08:06:00,
2013-08-23 03:11:00,76.1,75.5,30.00,ESE,112,5.4,7.4,98,0.00,,---,0.08,VWS V14.01,2013-08-23 08:11:00,
2013-08-23 03:16:00,75.9,75.3,30.00,ESE,112,6.3,6.3,98,0.00,,---,0.08,VWS V14.01,2013-08-23 08:16:00,
2013-08-23 03:21:00,75.7,75.1,30.00,SSE,158,4.9,6.5,98,0.00,,---,0.08,VWS V14.01,2013-08-23 08:21:00,
2013-08-23 03:26:00,75.6,75.0,30.00,East,90,2.7,3.6,98,0.00,,---,0.08,VWS V14.01,2013-08-23 08:26:00,
2013-08-23 03:31:00,75.4,74.8,30.00,East,90,1.3,2.2,98,0.00,,---,0.08,VWS V14.01,2013-08-23 08:31:00,
2013-08-23 03:36:00,75.6,75.0,30.00,SE,135,3.6,3.6,98,0.00,,---,0.08,VWS V14.01,2013-08-23 08:36:00,
2013-08-23 03:41:00,75.6,75.0,30.00,East,90,2.9,3.1,98,0.00,,---,0.08,VWS V14.01,2013-08-23 08:41:00,
2013-08-23 03:46:00,75.6,75.0,30.00,East,90,2.0,3.1,98,0.00,,---,0.08,VWS V14.01,2013-08-23 08:46:00,
2013-08-23 03:51:00,75.7,75.1,30.00,ENE,68,0.9,1.3,98,0.00,,---,0.08,VWS V14.01,2013-08-23 08:51:00,
2013-08-23 03:56:00,75.9,75.3,30.00,ENE,68,3.1,3.1,98,0.00,,---,0.08,VWS V14.01,2013-08-23 08:56:00,
2013-08-23 04:01:00,76.1,75.5,30.00,SE,135,2.7,2.7,98,0.05,,---,0.13,VWS V14.01,2013-08-23 09:01:00,
2013-08-23 04:06:00,76.3,75.7,29.97,SE,135,2.0,2.0,98,0.05,,---,0.13,VWS V14.01,2013-08-23 09:06:00,
2013-08-23 04:11:00,76.3,75.7,29.97,ESE,112,0.0,0.0,98,0.05,,---,0.13,VWS V14.01,2013-08-23 09:11:00,
2013-08-23 04:16:00,76.3,75.7,29.97,East,90,0.0,0.0,98,0.05,,---,0.13,VWS V14.01,2013-08-23 09:16:00,
2013-08-23 04:21:00,76.3,75.7,29.97,ENE,68,1.3,1.6,98,0.05,,---,0.13,VWS V14.01,2013-08-23 09:21:00,
2013-08-23 04:26:00,76.3,75.7,29.97,NE,45,0.0,0.0,98,0.05,,---,0.13,VWS V14.01,2013-08-23 09:26:00,
2013-08-23 04:31:00,76.5,75.9,29.97,ESE,112,1.3,1.3,98,0.05,,---,0.13,VWS V14.01,2013-08-23 09:31:00,
2013-08-23 04:36:00,76.6,76.0,29.94,East,90,2.5,2.5,98,0.05,,---,0.13,VWS V14.01,2013-08-23 09:36:00,
2013-08-23 04:41:00,76.8,76.2,29.94,ESE,112,0.9,2.5,98,0.05,,---,0.13,VWS V14.01,2013-08-23 09:41:00,
2013-08-23 04:46:00,77.0,76.4,29.94,SE,135,0.0,1.6,98,0.05,,---,0.13,VWS V14.01,2013-08-23 09:46:00,
2013-08-23 04:51:00,77.2,76.6,29.97,East,90,3.1,3.1,98,0.05,,---,0.13,VWS V14.01,2013-08-23 09:51:00,
2013-08-23 04:56:00,77.5,76.9,29.97,SW,225,5.6,10.1,98,0.05,,---,0.13,VWS V14.01,2013-08-23 09:56:00,
2013-08-23 05:01:00,77.2,76.6,29.97,ESE,112,2.7,2.7,98,0.00,,---,0.13,VWS V14.01,2013-08-23 10:01:00,
2013-08-23 05:06:00,76.8,76.2,29.97,ESE,112,3.8,5.8,98,0.00,,---,0.13,VWS V14.01,2013-08-23 10:06:00,
2013-08-23 05:11:00,76.1,75.5,29.97,SE,135,7.4,7.4,98,0.00,,---,0.13,VWS V14.01,2013-08-23 10:11:00,
2013-08-23 05:16:00,76.1,75.5,29.97,SE,135,4.0,4.0,98,0.00,,---,0.13,VWS V14.01,2013-08-23 10:16:00,
2013-08-23 05:21:00,76.1,75.5,30.00,East,90,3.8,3.8,98,0.00,,---,0.13,VWS V14.01,2013-08-23 10:21:00,
2013-08-23 05:26:00,76.3,75.7,30.00,East,90,4.3,4.3,98,0.00,,---,0.13,VWS V14.01,2013-08-23 10:26:00,
2013-08-23 05:31:00,76.5,75.9,30.00,ESE,112,8.5,10.1,98,0.00,,---,0.13,VWS V14.01,2013-08-23 10:31:00,
2013-08-23 05:36:00,76.5,75.9,29.97,ESE,112,5.4,7.4,98,0.00,,---,0.13,VWS V14.01,2013-08-23 10:36:00,
2013-08-23 05:41:00,76.3,75.7,29.97,SE,135,4.3,4.3,98,0.00,,---,0.13,VWS V14.01,2013-08-23 10:41:00,
2013-08-23 05:46:00,76.3,75.7,29.97,ESE,112,3.1,4.3,98,0.00,,---,0.13,VWS V14.01,2013-08-23 10:46:00,
2013-08-23 05:51:00,76.3,75.7,29.97,SE,135,2.7,4.7,98,0.00,,---,0.13,VWS V14.01,2013-08-23 10:51:00,
2013-08-23 05:56:00,76.1,75.5,29.97,South,180,3.1,4.3,98,0.00,,---,0.13,VWS V14.01,2013-08-23 10:56:00,
2013-08-23 06:01:00,76.3,75.7,29.97,ESE,112,3.6,3.6,98,0.00,,---,0.13,VWS V14.01,2013-08-23 11:01:00,
2013-08-23 06:06:00,76.5,75.9,29.97,ESE,112,3.4,3.4,98,0.00,,---,0.13,VWS V14.01,2013-08-23 11:06:00,
2013-08-23 06:11:00,76.5,75.9,29.97,ESE,112,3.1,3.8,98,0.00,,---,0.13,VWS V14.01,2013-08-23 11:11:00,
2013-08-23 06:16:00,76.5,75.9,29.97,ESE,112,3.6,3.8,98,0.00,,---,0.13,VWS V14.01,2013-08-23 11:16:00,
2013-08-23 06:21:00,77.0,76.4,29.97,East,90,3.1,3.1,98,0.00,,---,0.13,VWS V14.01,2013-08-23 11:21:00,
2013-08-23 06:26:00,76.5,75.9,29.97,SE,135,4.9,6.3,98,0.00,,---,0.13,VWS V14.01,2013-08-23 11:26:00,
2013-08-23 06:31:00,75.7,75.1,29.97,ESE,112,3.4,4.9,98,0.00,,---,0.13,VWS V14.01,2013-08-23 11:31:00,
2013-08-23 06:36:00,75.7,75.1,29.97,SE,135,3.1,3.1,98,0.00,,---,0.13,VWS V14.01,2013-08-23 11:36:00,
2013-08-23 06:41:00,76.1,75.5,29.97,SE,135,4.3,4.3,98,0.00,,---,0.13,VWS V14.01,2013-08-23 11:41:00,
2013-08-23 06:46:00,76.3,75.7,29.97,ESE,112,4.0,4.0,98,0.00,,---,0.13,VWS V14.01,2013-08-23 11:46:00,
2013-08-23 06:51:00,76.3,75.7,30.00,SE,135,4.7,5.6,98,0.00,,---,0.13,VWS V14.01,2013-08-23 11:51:00,
2013-08-23 06:56:00,76.3,75.7,30.00,ESE,112,2.5,4.9,98,0.00,,---,0.13,VWS V14.01,2013-08-23 11:56:00,
2013-08-23 07:01:00,76.1,75.5,30.00,ESE,112,3.4,4.7,98,0.00,,---,0.13,VWS V14.01,2013-08-23 12:01:00,
2013-08-23 07:06:00,76.1,75.5,30.03,SSE,158,2.5,4.0,98,0.00,,---,0.13,VWS V14.01,2013-08-23 12:06:00,
2013-08-23 07:11:00,76.1,75.5,30.03,SE,135,3.1,3.1,98,0.00,,---,0.13,VWS V14.01,2013-08-23 12:11:00,
2013-08-23 07:16:00,76.3,75.7,30.03,SE,135,2.0,3.6,98,0.00,,---,0.13,VWS V14.01,2013-08-23 12:16:00,
2013-08-23 07:21:00,76.6,76.0,30.03,South,180,3.6,3.8,98,0.00,,---,0.13,VWS V14.01,2013-08-23 12:21:00,
2013-08-23 07:26:00,76.8,76.2,30.03,South,180,1.1,4.0,98,0.00,,---,0.13,VWS V14.01,2013-08-23 12:26:00,
2013-08-23 07:31:00,77.0,76.4,30.03,ESE,112,2.2,4.3,98,0.00,,---,0.13,VWS V14.01,2013-08-23 12:31:00,
2013-08-23 07:36:00,77.4,76.8,30.03,ESE,112,5.6,5.8,98,0.00,,---,0.13,VWS V14.01,2013-08-23 12:36:00,
2013-08-23 07:41:00,77.4,76.8,30.03,SSE,158,2.5,3.4,98,0.00,,---,0.13,VWS V14.01,2013-08-23 12:41:00,
2013-08-23 07:46:00,77.7,77.1,30.03,ESE,112,2.7,5.6,98,0.00,,---,0.13,VWS V14.01,2013-08-23 12:46:00,
2013-08-23 07:51:00,77.7,77.1,30.03,ESE,112,3.1,4.0,98,0.00,,---,0.13,VWS V14.01,2013-08-23 12:51:00,
2013-08-23 07:56:00,77.9,77.3,30.03,SE,135,4.7,6.5,98,0.04,,---,0.17,VWS V14.01,2013-08-23 12:56:00,
2013-08-23 08:01:00,77.5,76.9,30.03,East,90,2.7,4.7,98,0.04,,---,0.17,VWS V14.01,2013-08-23 13:01:00,
2013-08-23 08:06:00,77.2,76.6,30.03,SE,135,3.8,4.0,98,0.04,,---,0.17,VWS V14.01,2013-08-23 13:06:00,
2013-08-23 08:11:00,77.2,76.6,30.03,SE,135,8.7,8.7,98,0.04,,---,0.17,VWS V14.01,2013-08-23 13:11:00,
2013-08-23 08:16:00,76.6,76.0,30.03,ESE,112,3.4,6.3,98,0.04,,---,0.17,VWS V14.01,2013-08-23 13:16:00,
2013-08-23 08:21:00,75.7,75.1,30.00,ENE,68,6.0,6.0,98,0.04,,---,0.17,VWS V14.01,2013-08-23 13:21:00,
2013-08-23 08:26:00,75.6,75.0,30.00,ESE,112,3.4,3.4,98,0.04,,---,0.17,VWS V14.01,2013-08-23 13:26:00,
2013-08-23 08:31:00,75.4,74.8,30.00,SE,135,2.7,2.7,98,0.04,,---,0.17,VWS V14.01,2013-08-23 13:31:00,
2013-08-23 08:36:00,75.4,74.8,30.03,South,180,2.0,2.0,98,0.04,,---,0.17,VWS V14.01,2013-08-23 13:36:00,
2013-08-23 08:41:00,75.6,75.0,30.03,ESE,112,4.3,4.3,98,0.04,,---,0.17,VWS V14.01,2013-08-23 13:41:00,
2013-08-23 08:46:00,75.9,75.3,30.03,East,90,0.0,3.4,98,0.04,,---,0.17,VWS V14.01,2013-08-23 13:46:00,
2013-08-23 08:51:00,76.5,75.9,30.00,ESE,112,0.0,5.6,98,0.04,,---,0.17,VWS V14.01,2013-08-23 13:51:00,
2013-08-23 08:56:00,77.0,76.4,30.00,SSE,158,1.3,2.9,98,0.00,,---,0.17,VWS V14.01,2013-08-23 13:56:00,
2013-08-23 09:01:00,77.5,76.9,30.00,ESE,112,3.1,3.1,98,0.00,,---,0.17,VWS V14.01,2013-08-23 14:01:00,
2013-08-23 09:06:00,77.7,77.1,30.03,SE,135,1.6,1.6,98,0.00,,---,0.17,VWS V14.01,2013-08-23 14:06:00,
2013-08-23 09:11:00,77.9,77.3,30.03,SSW,202,3.4,3.4,98,0.00,,---,0.17,VWS V14.01,2013-08-23 14:11:00,
2013-08-23 09:16:00,77.9,77.3,30.03,SE,135,1.1,2.2,98,0.00,,---,0.17,VWS V14.01,2013-08-23 14:16:00,
2013-08-23 09:21:00,78.1,77.5,30.03,SE,135,1.6,4.0,98,0.00,,---,0.17,VWS V14.01,2013-08-23 14:21:00,
2013-08-23 09:26:00,78.3,77.7,30.03,East,90,1.6,2.7,98,0.00,,---,0.17,VWS V14.01,2013-08-23 14:26:00,
2013-08-23 09:31:00,78.3,77.7,30.03,East,90,2.2,2.2,98,0.00,,---,0.17,VWS V14.01,2013-08-23 14:31:00,
2013-08-23 09:36:00,78.4,77.8,30.00,ENE,68,3.4,4.0,98,0.00,,---,0.17,VWS V14.01,2013-08-23 14:36:00,
2013-08-23 09:41:00,78.6,78.0,30.00,ESE,112,2.9,2.9,98,0.00,,---,0.17,VWS V14.01,2013-08-23 14:41:00,
2013-08-23 09:46:00,78.8,77.9,30.00,SSE,158,2.5,3.4,97,0.00,,---,0.17,VWS V14.01,2013-08-23 14:46:00,
2013-08-23 09:51:00,79.0,78.1,30.00,ENE,68,1.6,2.7,97,0.00,,---,0.17,VWS V14.01,2013-08-23 14:51:00,
2013-08-23 09:56:00,79.2,78.2,30.00,SSE,158,2.5,4.9,97,0.00,,---,0.17,VWS V14.01,2013-08-23 14:56:00,
2013-08-23 10:01:00,79.5,78.6,30.00,ENE,68,2.9,2.9,97,0.00,,---,0.17,VWS V14.01,2013-08-23 15:01:00,
2013-08-23 10:06:00,79.7,78.8,30.03,SSE,158,4.3,4.3,97,0.00,,---,0.17,VWS V14.01,2013-08-23 15:06:00,
2013-08-23 10:11:00,80.2,79.3,30.03,SE,135,2.9,3.4,97,0.00,,---,0.17,VWS V14.01,2013-08-23 15:11:00,
2013-08-23 10:16:00,80.8,79.8,30.03,East,90,3.4,3.4,97,0.00,,---,0.17,VWS V14.01,2013-08-23 15:16:00,
2013-08-23 10:21:00,81.1,80.2,30.03,ESE,112,3.1,3.1,97,0.00,,---,0.17,VWS V14.01,2013-08-23 15:21:00,
2013-08-23 10:26:00,81.9,80.9,30.03,ENE,68,2.7,3.8,97,0.00,,---,0.17,VWS V14.01,2013-08-23 15:26:00,
2013-08-23 10:31:00,82.6,81.3,30.03,ESE,112,3.4,3.4,96,0.00,,---,0.17,VWS V14.01,2013-08-23 15:31:00,
2013-08-23 10:36:00,83.3,82.0,30.00,ESE,112,2.7,3.8,96,0.00,,---,0.17,VWS V14.01,2013-08-23 15:36:00,
2013-08-23 10:41:00,84.4,83.1,30.00,East,90,5.6,5.6,96,0.00,,---,0.17,VWS V14.01,2013-08-23 15:41:00,
2013-08-23 10:46:00,85.1,83.8,30.00,East,90,2.7,7.2,96,0.00,,---,0.17,VWS V14.01,2013-08-23 15:46:00,
2013-08-23 10:51:00,85.8,84.6,30.03,SE,135,2.5,5.6,96,0.00,,---,0.17,VWS V14.01,2013-08-23 15:51:00,
2013-08-23 10:56:00,86.9,85.6,30.03,SE,135,3.8,4.3,96,0.00,,---,0.17,VWS V14.01,2013-08-23 15:56:00,
2013-08-23 11:01:00,87.6,86.3,30.03,SSE,158,3.4,6.5,96,0.00,,---,0.17,VWS V14.01,2013-08-23 16:01:00,
2013-08-23 11:06:00,87.8,85.9,30.03,SE,135,4.0,5.4,94,0.00,,---,0.17,VWS V14.01,2013-08-23 16:06:00,
2013-08-23 11:11:00,88.7,86.8,30.03,SSE,158,3.6,4.3,94,0.00,,---,0.17,VWS V14.01,2013-08-23 16:11:00,
2013-08-23 11:16:00,88.9,86.9,30.03,ESE,112,5.4,6.5,94,0.00,,---,0.17,VWS V14.01,2013-08-23 16:16:00,
2013-08-23 11:21:00,89.1,86.8,30.03,NE,45,6.3,6.3,93,0.00,,---,0.17,VWS V14.01,2013-08-23 16:21:00,
2013-08-23 11:26:00,89.4,87.1,30.03,East,90,2.7,5.6,93,0.00,,---,0.17,VWS V14.01,2013-08-23 16:26:00,
2013-08-23 11:31:00,89.6,87.0,30.03,ESE,112,5.4,7.8,92,0.00,,---,0.17,VWS V14.01,2013-08-23 16:31:00,
2013-08-23 11:36:00,89.8,86.8,30.03,ESE,112,7.8,7.8,91,0.00,,---,0.17,VWS V14.01,2013-08-23 16:36:00,
2013-08-23 11:41:00,90.0,86.6,30.03,SE,135,3.8,7.8,90,0.00,,---,0.17,VWS V14.01,2013-08-23 16:41:00,
2013-08-23 11:46:00,90.7,87.3,30.03,South,180,2.7,8.1,90,0.00,,---,0.17,VWS V14.01,2013-08-23 16:46:00,
2013-08-23 11:51:00,91.4,87.7,30.03,East,90,3.4,9.8,89,0.00,,---,0.17,VWS V14.01,2013-08-23 16:51:00,
2013-08-23 11:56:00,91.9,87.9,30.03,East,90,5.6,7.6,88,0.00,,---,0.17,VWS V14.01,2013-08-23 16:56:00,
2013-08-23 12:01:00,91.8,87.0,30.03,East,90,4.0,11.0,86,0.00,,---,0.17,VWS V14.01,2013-08-23 17:01:00,
2013-08-23 12:06:00,92.3,87.5,30.03,ESE,112,7.4,7.4,86,0.00,,---,0.17,VWS V14.01,2013-08-23 17:06:00,
2013-08-23 12:11:00,91.8,86.6,30.03,SE,135,6.5,6.5,85,0.00,,---,0.17,VWS V14.01,2013-08-23 17:11:00,
2013-08-23 12:16:00,92.7,87.1,30.03,SE,135,7.6,7.6,84,0.00,,---,0.00,VWS V14.01,2013-08-23 17:16:00,
2013-08-23 12:21:00,93.0,87.8,30.00,ESE,112,5.4,5.4,85,0.00,,---,0.17,VWS V14.01,2013-08-23 17:21:00,
2013-08-23 12:25:00,92.7,87.1,30.00,SSE,158,6.5,7.4,84,0.00,,---,0.17,VWS V14.01,2013-08-23 17:25:00,
2013-08-23 12:30:00,92.5,86.9,30.00,East,90,4.0,5.6,84,0.00,,---,0.17,VWS V14.01,2013-08-23 17:30:00,
2013-08-23 12:35:00,93.2,87.3,30.03,ESE,112,8.7,8.7,83,0.00,,---,0.17,VWS V14.01,2013-08-23 17:35:00,
2013-08-23 12:40:00,93.6,86.8,30.03,SE,135,5.6,8.7,81,0.00,,---,0.17,VWS V14.01,2013-08-23 17:40:00,
2013-08-23 12:45:00,93.4,86.7,30.03,SE,135,6.7,6.7,81,0.00,,---,0.17,VWS V14.01,2013-08-23 17:45:00,
2013-08-23 12:50:00,93.9,86.8,30.03,SE,135,6.3,7.6,80,0.00,,---,0.17,VWS V14.01,2013-08-23 17:50:00,
2013-08-23 12:55:00,93.4,86.3,30.03,North,0,3.4,9.6,80,0.00,,---,0.17,VWS V14.01,2013-08-23 17:55:00,
2013-08-23 13:00:00,94.1,87.4,30.03,ESE,112,7.6,8.5,81,0.00,,---,0.17,VWS V14.01,2013-08-23 18:00:00,
2013-08-23 13:05:00,94.8,88.1,30.03,ESE,112,4.0,4.3,81,0.00,,---,0.17,VWS V14.01,2013-08-23 18:05:00,
2013-08-23 13:10:00,92.7,86.4,30.03,ENE,68,5.8,5.8,82,0.00,,---,0.17,VWS V14.01,2013-08-23 18:10:00,
2013-08-23 13:15:00,93.6,87.2,30.03,East,90,8.1,8.1,82,0.00,,---,0.17,VWS V14.01,2013-08-23 18:15:00,
2013-08-23 13:20:00,93.6,86.8,30.03,ESE,112,3.6,7.6,81,0.00,,---,0.17,VWS V14.01,2013-08-23 18:20:00,
2013-08-23 13:25:00,94.1,86.6,30.03,ESE,112,7.6,9.8,79,0.00,,---,0.17,VWS V14.01,2013-08-23 18:25:00,
2013-08-23 13:30:00,95.7,88.6,30.03,SSE,158,3.4,7.8,80,0.00,,---,0.17,VWS V14.01,2013-08-23 18:30:00,
2013-08-23 13:35:00,94.1,86.2,30.00,ESE,112,6.5,7.8,78,0.00,,---,0.17,VWS V14.01,2013-08-23 18:35:00,
2013-08-23 13:40:00,91.8,84.7,30.00,ESE,112,5.4,6.5,80,0.00,,---,0.17,VWS V14.01,2013-08-23 18:40:00,
2013-08-23 13:45:00,91.4,85.1,30.00,ESE,112,3.6,7.2,82,0.00,,---,0.17,VWS V14.01,2013-08-23 18:45:00,
2013-08-23 13:50:00,92.3,86.4,30.03,SE,135,4.3,7.6,83,0.00,,---,0.17,VWS V14.01,2013-08-23 18:50:00,
2013-08-23 13:55:00,92.1,86.2,30.03,South,180,3.8,4.7,83,0.00,,---,0.17,VWS V14.01,2013-08-23 18:55:00,
2013-08-23 14:00:00,92.8,87.3,30.03,East,90,3.1,4.0,84,0.00,,---,0.17,VWS V14.01,2013-08-23 19:00:00,
2013-08-23 14:05:00,91.8,85.9,30.03,SE,135,6.3,6.3,83,0.00,,---,0.17,VWS V14.01,2013-08-23 19:05:00,
2013-08-23 14:10:00,91.2,85.7,30.03,SE,135,2.9,4.9,84,0.00,,---,0.17,VWS V14.01,2013-08-23 19:10:00,
2013-08-23 14:15:00,90.3,85.2,30.03,SE,135,4.0,4.9,85,0.00,,---,0.17,VWS V14.01,2013-08-23 19:15:00,
2013-08-23 14:20:00,89.8,84.7,30.00,NE,45,4.9,5.8,85,0.00,,---,0.17,VWS V14.01,2013-08-23 19:20:00,
2013-08-23 14:25:00,89.1,84.3,30.00,SSE,158,3.8,6.0,86,0.00,,---,0.17,VWS V14.01,2013-08-23 19:25:00,
2013-08-23 14:30:00,88.3,84.0,30.00,SSE,158,3.6,5.4,87,0.00,,---,0.17,VWS V14.01,2013-08-23 19:30:00,
2013-08-23 14:35:00,88.0,83.6,30.00,NE,45,9.8,9.8,87,0.00,,---,0.17,VWS V14.01,2013-08-23 19:35:00,
2013-08-23 14:40:00,87.8,83.4,30.00,ENE,68,3.8,4.9,87,0.00,,---,0.17,VWS V14.01,2013-08-23 19:40:00,
2013-08-23 14:45:00,87.8,83.8,30.00,SSE,158,12.3,12.3,88,0.00,,---,0.17,VWS V14.01,2013-08-23 19:45:00,
2013-08-23 14:50:00,87.4,83.8,29.97,SE,135,5.6,8.1,89,0.00,,---,0.17,VWS V14.01,2013-08-23 19:50:00,
2013-08-23 14:55:00,87.1,83.4,29.97,South,180,5.8,8.5,89,0.00,,---,0.17,VWS V14.01,2013-08-23 19:55:00,
2013-08-23 15:00:00,85.3,81.3,29.97,SE,135,2.0,6.5,88,0.00,,---,0.17,VWS V14.01,2013-08-23 20:00:00,
2013-08-23 15:05:00,83.1,80.2,30.00,ESE,112,5.4,8.7,91,0.00,,---,0.17,VWS V14.01,2013-08-23 20:05:00,
2013-08-23 15:10:00,80.6,78.1,30.00,SE,135,4.7,6.9,92,0.04,,---,0.21,VWS V14.01,2013-08-23 20:10:00,
2013-08-23 15:15:00,79.9,78.0,30.00,ESE,112,6.3,6.3,94,0.04,,---,0.21,VWS V14.01,2013-08-23 20:15:00,
2013-08-23 15:20:00,79.7,78.2,29.97,ESE,112,3.8,4.0,95,0.04,,---,0.21,VWS V14.01,2013-08-23 20:20:00,
2013-08-23 15:25:00,79.9,78.6,29.97,SE,135,3.1,4.0,96,0.04,,---,0.21,VWS V14.01,2013-08-23 20:25:00,
2013-08-23 15:30:00,80.4,79.2,29.97,SE,135,0.0,0.0,96,0.04,,---,0.21,VWS V14.01,2013-08-23 20:30:00,
2013-08-23 15:35:00,81.1,79.9,29.97,ESE,112,3.1,3.4,96,0.04,,---,0.21,VWS V14.01,2013-08-23 20:35:00,
2013-08-23 15:40:00,81.5,80.6,29.97,ESE,112,2.0,3.6,97,0.04,,---,0.21,VWS V14.01,2013-08-23 20:40:00,
2013-08-23 15:45:00,81.9,80.9,29.97,ESE,112,3.4,3.4,97,0.04,,---,0.21,VWS V14.01,2013-08-23 20:45:00,
2013-08-23 15:50:00,82.0,81.1,29.97,SE,135,2.5,5.6,97,0.04,,---,0.21,VWS V14.01,2013-08-23 20:50:00,
2013-08-23 15:55:00,82.0,81.1,29.97,ESE,112,5.4,5.4,97,0.04,,---,0.21,VWS V14.01,2013-08-23 20:55:00,
2013-08-23 16:00:00,82.0,81.1,29.97,SSE,158,4.7,4.7,97,0.04,,---,0.21,VWS V14.01,2013-08-23 21:00:00,
2013-08-23 16:05:00,82.0,81.1,29.97,ESE,112,6.3,6.3,97,0.04,,---,0.21,VWS V14.01,2013-08-23 21:05:00,
2013-08-23 16:10:00,82.2,81.0,29.97,ESE,112,3.4,3.6,96,0.00,,---,0.21,VWS V14.01,2013-08-23 21:10:00,
2013-08-23 16:15:00,82.2,81.0,29.97,SSE,158,4.9,4.9,96,0.00,,---,0.21,VWS V14.01,2013-08-23 21:15:00,
2013-08-23 16:20:00,82.2,81.0,29.97,SE,135,0.0,4.5,96,0.00,,---,0.21,VWS V14.01,2013-08-23 21:20:00,
2013-08-23 16:25:00,82.4,81.2,29.97,SE,135,1.6,4.0,96,0.00,,---,0.21,VWS V14.01,2013-08-23 21:25:00,
2013-08-23 16:30:00,82.4,81.2,29.97,ESE,112,2.7,2.7,96,0.00,,---,0.21,VWS V14.01,2013-08-23 21:30:00,
2013-08-23 16:35:00,82.4,81.2,29.97,SE,135,2.9,2.9,96,0.00,,---,0.21,VWS V14.01,2013-08-23 21:35:00,
2013-08-23 16:40:00,82.6,81.3,29.97,SE,135,3.1,3.1,96,0.00,,---,0.21,VWS V14.01,2013-08-23 21:40:00,
2013-08-23 16:45:00,82.6,81.3,29.97,ESE,112,3.6,3.8,96,0.00,,---,0.21,VWS V14.01,2013-08-23 21:45:00,
2013-08-23 16:50:00,82.8,81.5,29.97,ESE,112,1.3,1.3,96,0.00,,---,0.21,VWS V14.01,2013-08-23 21:50:00,
2013-08-23 16:55:00,82.9,81.7,29.97,ENE,68,3.8,3.8,96,0.00,,---,0.21,VWS V14.01,2013-08-23 21:55:00,
2013-08-23 17:00:00,82.9,81.7,29.97,South,180,2.0,2.0,96,0.00,,---,0.21,VWS V14.01,2013-08-23 22:00:00,
2013-08-23 17:05:00,82.8,81.5,29.97,East,90,5.6,8.7,96,0.00,,---,0.21,VWS V14.01,2013-08-23 22:05:00,
2013-08-23 17:10:00,81.7,80.1,29.97,ESE,112,5.6,6.0,95,0.00,,---,0.21,VWS V14.01,2013-08-23 22:10:00,
2013-08-23 17:15:00,80.4,79.2,29.97,SE,135,2.0,3.4,96,0.00,,---,0.21,VWS V14.01,2013-08-23 22:15:00,
2013-08-23 17:20:00,80.4,79.2,30.00,East,90,2.0,4.7,96,0.00,,---,0.21,VWS V14.01,2013-08-23 22:20:00,
2013-08-23 17:25:00,80.2,79.0,30.00,SE,135,2.5,2.7,96,0.00,,---,0.21,VWS V14.01,2013-08-23 22:25:00,
2013-08-23 17:30:00,80.2,79.0,30.00,SE,135,2.0,2.0,96,0.00,,---,0.21,VWS V14.01,2013-08-23 22:30:00,
2013-08-23 17:35:00,80.2,79.3,30.00,SSE,158,0.0,1.1,97,0.00,,---,0.21,VWS V14.01,2013-08-23 22:35:00,
2013-08-23 17:40:00,80.1,79.1,30.00,ESE,112,0.0,0.0,97,0.00,,---,0.21,VWS V14.01,2013-08-23 22:40:00,
2013-08-23 17:45:00,80.1,79.1,30.00,East,90,1.6,2.0,97,0.00,,---,0.21,VWS V14.01,2013-08-23 22:45:00,
2013-08-23 17:50:00,79.9,79.0,30.00,ESE,112,0.0,0.0,97,0.00,,---,0.21,VWS V14.01,2013-08-23 22:50:00,
2013-08-23 17:55:00,79.9,79.0,30.00,SE,135,0.0,2.0,97,0.00,,---,0.21,VWS V14.01,2013-08-23 22:55:00,
2013-08-23 18:00:00,79.9,79.0,30.00,SSE,158,0.0,0.0,97,0.00,,---,0.21,VWS V14.01,2013-08-23 23:00:00,
2013-08-23 18:05:00,79.9,79.0,30.00,SE,135,0.0,0.0,97,0.00,,---,0.21,VWS V14.01,2013-08-23 23:05:00,
2013-08-23 18:10:00,79.9,79.0,30.00,SE,135,0.0,0.0,97,0.00,,---,0.21,VWS V14.01,2013-08-23 23:10:00,
2013-08-23 18:15:00,79.9,79.0,30.00,SSE,158,0.0,0.0,97,0.00,,---,0.21,VWS V14.01,2013-08-23 23:15:00,
2013-08-23 18:20:00,79.9,79.0,30.00,SE,135,0.0,0.0,97,0.00,,---,0.21,VWS V14.01,2013-08-23 23:20:00,
2013-08-23 18:25:00,79.9,79.0,30.00,SSE,158,0.0,0.0,97,0.00,,---,0.21,VWS V14.01,2013-08-23 23:25:00,
2013-08-23 18:30:00,79.9,79.0,30.00,SSE,158,0.0,0.0,97,0.00,,---,0.21,VWS V14.01,2013-08-23 23:30:00,
2013-08-23 18:35:00,79.9,79.0,30.00,SE,135,0.0,0.0,97,0.00,,---,0.21,VWS V14.01,2013-08-23 23:35:00,
2013-08-23 18:40:00,79.9,79.0,30.00,SE,135,0.0,0.0,97,0.00,,---,0.21,VWS V14.01,2013-08-23 23:40:00,
2013-08-23 18:45:00,79.7,78.8,30.00,SE,135,0.0,0.0,97,0.00,,---,0.21,VWS V14.01,2013-08-23 23:45:00,
2013-08-23 18:50:00,79.7,78.8,30.03,SE,135,0.0,0.0,97,0.00,,---,0.21,VWS V14.01,2013-08-23 23:50:00,
2013-08-23 18:55:00,79.9,79.0,30.03,ESE,112,0.0,0.0,97,0.00,,---,0.21,VWS V14.01,2013-08-23 23:55:00,
2013-08-23 19:00:00,79.9,79.0,30.03,SE,135,0.0,0.0,97,0.00,,---,0.21,VWS V14.01,2013-08-24 00:00:00,
2013-08-23 19:05:00,79.9,79.0,30.03,ESE,112,0.0,0.9,97,0.00,,---,0.21,VWS V14.01,2013-08-24 00:05:00,
2013-08-23 19:10:00,79.7,78.8,30.03,SSE,158,0.9,0.9,97,0.00,,---,0.21,VWS V14.01,2013-08-24 00:10:00,
2013-08-23 19:15:00,79.7,78.8,30.03,SE,135,0.0,0.0,97,0.00,,---,0.21,VWS V14.01,2013-08-24 00:15:00,
2013-08-23 19:20:00,79.7,78.8,30.03,SSE,158,0.0,0.0,97,0.00,,---,0.21,VWS V14.01,2013-08-24 00:20:00,
2013-08-23 19:25:00,34.2,0.0,30.03,SE,135,0.0,0.0,0,0.00,,---,0.21,VWS V14.01,2013-08-24 00:25:00,
2013-08-23 19:30:00,79.9,79.0,30.03,SE,135,0.0,1.6,97,0.00,,---,0.21,VWS V14.01,2013-08-24 00:30:00,
2013-08-23 19:35:00,80.1,79.1,30.03,SE,135,2.9,3.6,97,0.00,,---,0.21,VWS V14.01,2013-08-24 00:35:00,
2013-08-23 19:40:00,80.2,79.6,30.03,East,90,1.1,1.6,98,0.00,,---,0.21,VWS V14.01,2013-08-24 00:40:00,
2013-08-23 19:45:00,80.4,79.8,30.03,SE,135,1.6,2.5,98,0.00,,---,0.21,VWS V14.01,2013-08-24 00:45:00,
2013-08-23 19:50:00,80.8,79.8,30.03,North,0,2.9,2.9,97,0.00,,---,0.21,VWS V14.01,2013-08-24 00:50:00,
2013-08-23 19:55:00,81.0,80.0,30.03,ESE,112,3.8,5.8,97,0.00,,---,0.21,VWS V14.01,2013-08-24 00:55:00,
2013-08-23 20:00:00,80.6,79.7,30.03,SSE,158,4.3,7.8,97,0.00,,---,0.21,VWS V14.01,2013-08-24 01:00:00,
2013-08-23 20:05:00,79.9,78.6,30.06,SE,135,5.6,6.5,96,0.00,,---,0.21,VWS V14.01,2013-08-24 01:05:00,
2013-08-23 20:10:00,79.5,78.3,30.06,SE,135,4.9,4.9,96,0.00,,---,0.21,VWS V14.01,2013-08-24 01:10:00,
2013-08-23 20:15:00,79.5,78.3,30.06,SE,135,2.2,3.4,96,0.00,,---,0.21,VWS V14.01,2013-08-24 01:15:00,
2013-08-23 20:20:00,79.5,78.3,30.06,SE,135,0.0,1.1,96,0.00,,---,0.21,VWS V14.01,2013-08-24 01:20:00,
2013-08-23 20:25:00,79.5,78.3,30.06,ESE,112,0.0,0.0,96,0.00,,---,0.21,VWS V14.01,2013-08-24 01:25:00,
2013-08-23 20:30:00,79.5,78.3,30.06,ESE,112,0.9,1.1,96,0.00,,---,0.21,VWS V14.01,2013-08-24 01:30:00,
2013-08-23 20:35:00,77.9,77.0,30.06,ESE,112,0.0,0.0,97,0.00,,---,0.21,VWS V14.01,2013-08-24 01:35:00,
2013-08-23 20:40:00,77.9,77.0,30.06,SE,135,0.0,0.0,97,0.00,,---,0.21,VWS V14.01,2013-08-24 01:40:00,
2013-08-23 20:45:00,78.1,77.2,30.06,ENE,68,4.0,4.0,97,0.00,,---,0.21,VWS V14.01,2013-08-24 01:45:00,
2013-08-23 20:50:00,79.0,78.1,30.09,SSE,158,3.1,4.5,97,0.00,,---,0.21,VWS V14.01,2013-08-24 01:50:00,
2013-08-23 20:55:00,79.5,78.6,30.09,ESE,112,4.3,4.3,97,0.00,,---,0.21,VWS V14.01,2013-08-24 01:55:00,
2013-08-23 21:00:00,79.5,78.9,30.09,SSE,158,3.8,3.8,98,0.00,,---,0.21,VWS V14.01,2013-08-24 02:00:00,
2013-08-23 21:05:00,79.5,78.6,30.09,SE,135,0.0,1.3,97,0.00,,---,0.21,VWS V14.01,2013-08-24 02:05:00,
2013-08-23 21:10:00,79.2,78.2,30.09,ESE,112,3.1,3.1,97,0.00,,---,0.21,VWS V14.01,2013-08-24 02:10:00,
2013-08-23 21:15:00,79.2,78.2,30.09,ESE,112,0.9,0.9,97,0.00,,---,0.21,VWS V14.01,2013-08-24 02:15:00,
2013-08-23 21:20:00,79.2,78.2,30.06,East,90,2.5,2.5,97,0.00,,---,0.21,VWS V14.01,2013-08-24 02:20:00,
2013-08-23 21:25:00,79.2,78.2,30.06,ESE,112,2.9,2.9,97,0.00,,---,0.21,VWS V14.01,2013-08-24 02:25:00,
2013-08-23 21:30:00,79.0,78.1,30.06,SSE,158,2.0,2.0,97,0.00,,---,0.21,VWS V14.01,2013-08-24 02:30:00,
2013-08-23 21:35:00,79.0,78.1,30.09,ENE,68,1.3,2.0,97,0.00,,---,0.21,VWS V14.01,2013-08-24 02:35:00,
2013-08-23 21:40:00,79.0,78.1,30.09,ESE,112,2.0,2.0,97,0.00,,---,0.21,VWS V14.01,2013-08-24 02:40:00,
2013-08-23 21:45:00,79.0,78.1,30.09,East,90,0.0,0.0,97,0.00,,---,0.21,VWS V14.01,2013-08-24 02:45:00,
2013-08-23 21:50:00,79.2,78.2,30.09,North,0,0.0,0.0,97,0.00,,---,0.21,VWS V14.01,2013-08-24 02:50:00,
2013-08-23 21:55:00,79.0,78.1,30.09,SE,135,0.0,2.0,97,0.00,,---,0.21,VWS V14.01,2013-08-24 02:55:00,
2013-08-23 22:00:00,79.0,78.1,30.09,SE,135,2.0,2.0,97,0.00,,---,0.21,VWS V14.01,2013-08-24 03:00:00,
2013-08-23 22:05:00,79.0,78.1,30.09,East,90,0.0,0.0,97,0.00,,---,0.21,VWS V14.01,2013-08-24 03:05:00,
2013-08-23 22:10:00,79.0,78.1,30.09,SE,135,0.9,0.9,97,0.00,,---,0.21,VWS V14.01,2013-08-24 03:10:00,
2013-08-23 22:15:00,79.0,78.1,30.09,SSE,158,1.1,2.0,97,0.00,,---,0.21,VWS V14.01,2013-08-24 03:15:00,
2013-08-23 22:20:00,79.2,78.2,30.09,SE,135,0.0,0.0,97,0.00,,---,0.21,VWS V14.01,2013-08-24 03:20:00,
2013-08-23 22:25:00,79.2,78.2,30.09,South,180,2.0,2.0,97,0.00,,---,0.21,VWS V14.01,2013-08-24 03:25:00,
2013-08-23 22:30:00,79.2,78.2,30.09,ESE,112,0.0,0.0,97,0.00,,---,0.21,VWS V14.01,2013-08-24 03:30:00,
2013-08-23 22:35:00,79.2,78.2,30.06,ESE,112,0.0,0.0,97,0.00,,---,0.21,VWS V14.01,2013-08-24 03:35:00,
2013-08-23 22:40:00,79.2,78.2,30.06,SE,135,0.0,0.9,97,0.00,,---,0.21,VWS V14.01,2013-08-24 03:40:00,
2013-08-23 22:45:00,79.2,78.2,30.06,East,90,1.3,1.3,97,0.00,,---,0.21,VWS V14.01,2013-08-24 03:45:00,
2013-08-23 22:50:00,79.2,78.2,30.09,SE,135,0.0,0.0,97,0.00,,---,0.21,VWS V14.01,2013-08-24 03:50:00,
2013-08-23 22:55:00,79.3,78.4,30.09,SE,135,0.0,0.0,97,0.00,,---,0.21,VWS V14.01,2013-08-24 03:55:00,
2013-08-23 23:00:00,79.3,78.4,30.09,ESE,112,1.1,1.3,97,0.00,,---,0.21,VWS V14.01,2013-08-24 04:00:00,
2013-08-23 23:01:00,79.3,78.4,30.09,SE,135,0.0,1.1,97,0.00,,---,0.21,VWS V14.01,2013-08-24 04:01:00,
2013-08-23 23:06:00,79.3,78.4,30.09,SE,135,1.1,1.1,97,0.00,,---,0.21,VWS V14.01,2013-08-24 04:06:00,
2013-08-23 23:11:00,79.3,78.4,30.09,ESE,112,0.0,0.0,97,0.00,,---,0.21,VWS V14.01,2013-08-24 04:11:00,
2013-08-23 23:16:00,79.3,78.4,30.09,SE,135,0.0,0.0,97,0.00,,---,0.21,VWS V14.01,2013-08-24 04:16:00,
2013-08-23 23:21:00,79.3,78.4,30.09,SE,135,0.0,0.0,97,0.00,,---,0.21,VWS V14.01,2013-08-24 04:21:00,
2013-08-23 23:26:00,79.3,78.4,30.09,ESE,112,0.0,0.0,97,0.00,,---,0.21,VWS V14.01,2013-08-24 04:26:00,
2013-08-23 23:31:00,79.3,78.4,30.09,ESE,112,0.0,0.0,97,0.00,,---,0.21,VWS V14.01,2013-08-24 04:31:00,
2013-08-23 23:36:00,79.3,78.4,30.06,SE,135,0.0,0.0,97,0.00,,---,0.21,VWS V14.01,2013-08-24 04:36:00,
2013-08-23 23:41:00,79.3,78.4,30.06,SE,135,0.0,0.0,97,0.00,,---,0.21,VWS V14.01,2013-08-24 04:41:00,
2013-08-23 23:46:00,79.2,78.2,30.06,SE,135,0.0,0.0,97,0.00,,---,0.21,VWS V14.01,2013-08-24 04:46:00,
2013-08-23 23:51:00,79.0,78.1,30.09,SE,135,0.0,0.0,97,0.00,,---,0.21,VWS V14.01,2013-08-24 04:51:00,
2013-08-23 23:56:00,79.0,78.1,30.09,SE,135,0.0,0.0,97,0.00,,---,0.21,VWS V14.01,2013-08-24 04:56:00,